Regional Weather Roundup
Issued by NWS

Home | Current Version | Previous Version | Graphics & Text | Print | Product List | Glossary Off
Versions: 1 2 3 4 5 6 7 8 9 10 11 12 13 14 15 16 17 18 19 20 21 22 23 24 25 26 27 28 29 30 31 32 33 34 35 36 37 38 39 40 41 42 43 44 45 46 47 48 49 50

000
ASUS43 KDMX 221806
RWRIA

WEATHER ROUNDUP FOR IOWA
NATIONAL WEATHER SERVICE DES MOINES IA
100 PM CDT SAT APR 22 2017

NOTE: "FAIR" INDICATES FEW OR NO CLOUDS BELOW 12,000 FEET WITH NO
SIGNIFICANT WEATHER AND/OR OBSTRUCTIONS TO VISIBILITY.

* - THESE STATIONS ARE NOT NWS STATIONS...THUS NOT UNDER NWS
QUALITY CONTROL.  THEY ALSO DO NOT REPORT WEATHER SUCH
AS PRECIPITATION OR FOG.

IAZ001>003-012>014-020>022-031>034-043>046-221900-
   NORTHWEST IOWA

CITY           SKY/WX    TMP DP  RH WIND       PRES   REMARKS
CARROLL *      SUNNY     63  28  27 NE14      30.24F
CHEROKEE *     SUNNY     62  34  35 N5        30.26F
DENISON *      SUNNY     61  30  31 N6G16     30.27F
LE MARS *      SUNNY     63  32  31 VRB3      30.27F
ORANGE CITY *  SUNNY     61  34  36 CALM      30.27S
SHELDON *      SUNNY     61  32  33 CALM      30.25S
SIOUX CITY     SUNNY     62  33  33 CALM      30.27F
6HR MIN TEMP:  34; 6HR MAX TEMP:  63;

SPENCER        SUNNY     62  33  33 VRB3      30.25F
6HR MIN TEMP:  33; 6HR MAX TEMP:  63;

STORM LAKE *     N/A     59  30  33 VRB6      30.26F
$$

IAZ055>058-069>071-079>083-090>094-221900-
   SOUTHWEST IOWA

CITY           SKY/WX    TMP DP  RH WIND       PRES   REMARKS
ATLANTIC *     CLOUDY    61  30  31 NE7G15    30.24S
AUDUBON *      SUNNY     63  25  23 N9G16     30.25F
CLARINDA *     CLOUDY    63  32  31 NE14      30.24S
COUNCIL BLFS *   N/A     61  32  33 NE9G17    30.24F
CRESTON *      CLOUDY    61  28  29 NE17G24   30.23F
HARLAN  *      SUNNY     63  30  29 NE14G20   30.28F
LAMONI         MOSUNNY   61  39  44 NE18G24   30.20F
6HR MIN TEMP:  44; 6HR MAX TEMP:  61;

RED OAK *      CLOUDY    61  32  33 NE9G16    30.24S
SHENANDOAH *   MOSUNNY   63  32  31 NE18      30.23F
$$

IAZ047>049-059>061-072>074-084-221900-
   CENTRAL IOWA

CITY           SKY/WX    TMP DP  RH WIND       PRES   REMARKS
AMES           SUNNY     63  34  33 E8        30.23F
6HR MIN TEMP:  41; 6HR MAX TEMP:  63;

ANKENY *       SUNNY     61  30  31 NE8G15    30.24F
BOONE *        SUNNY     61  32  33 NE8G17    30.23F
CHARITON *     CLOUDY    59  30  33 NE14G20   30.20F
DES MOINES     PTSUNNY   63  32  31 NE13G21   30.23F
6HR MIN TEMP:  46; 6HR MAX TEMP:  64;

GRINNELL*      SUNNY     61  25  25 NE10G17   30.23F
KNOXVILLE *    CLOUDY    61  25  25 E14G22    30.20F
MARSHALLTOWN   SUNNY     62  29  28 N12       30.22F
6HR MIN TEMP:  41; 6HR MAX TEMP:  62;

NEWTON *       SUNNY     61  28  29 E14       30.22F
PELLA *        SUNNY     62  26  26 E9        30.23S
PERRY *          N/A     62  23  22 NE8G18    30.24S
$$

IAZ004>006-015-016-023>025-035-036-221900-
   NORTH CENTRAL IOWA

CITY           SKY/WX    TMP DP  RH WIND       PRES   REMARKS
ALGONA *       SUNNY     63  32  31 CALM      30.25F
CLARION *      SUNNY     63  30  29 VRB6G15   30.24F
ESTHERVILLE    SUNNY     61  35  37 VRB3      30.24F
6HR MIN TEMP:  37; 6HR MAX TEMP:  63;

FORT DODGE *   SUNNY     63  32  31 NE3       30.25F
MASON CITY     SUNNY     63  32  31 N10       30.25F
6HR MIN TEMP:  37; 6HR MAX TEMP:  63;

FOREST CITY *    N/A     64  32  29 W5        30.24F
WEBSTER CITY * SUNNY     63  27  25 N10       30.22F
IOWA FALLS *     N/A     62  31  31 N7        30.25F
$$

IAZ007>011-017>019-026>030-037>042-050>054-066-221900-
   NORTHEAST IOWA

CITY           SKY/WX    TMP DP  RH WIND       PRES   REMARKS
CEDAR RAPIDS   SUNNY     60  30  32 NE8G18    30.22S
6HR MIN TEMP:  41; 6HR MAX TEMP:  60;

CHARLES CITY * SUNNY     59  25  27 VRB7G13   30.24F
CLINTON *      SUNNY     59  36  42 NE15      30.22S
DECORAH *      SUNNY     59  28  31 VRB6      30.22F
DUBUQUE        SUNNY     60  33  36 NE8       30.22F
6HR MIN TEMP:  39; 6HR MAX TEMP:  60;

MONTICELLO *   SUNNY     59  30  33 NE9       30.22F
OELWEIN *      SUNNY     59  30  33 NE6       30.23F
WATERLOO       SUNNY     61  29  29 MISG      30.22F
6HR MIN TEMP:  37; 6HR MAX TEMP:  62;

$$

IAZ064-065-067-068-078-221900-
   EAST CENTRAL IOWA

CITY           SKY/WX    TMP DP  RH WIND       PRES   REMARKS
DAVENPORT      SUNNY     59  33  37 NE13G21   30.21F
6HR MIN TEMP:  40; 6HR MAX TEMP:  59;

IOWA CITY      SUNNY     61  32  33 NE9       30.23F
6HR MIN TEMP:  44; 6HR MAX TEMP:  62;

MT. PLEASANT * SUNNY     59  31  35 NE15G22   30.19F
MUSCATINE *    SUNNY     61  34  36 E14G21    30.21F
QUAD CITIES    SUNNY     60  33  36 E13G23    30.20F
6HR MIN TEMP:  44; 6HR MAX TEMP:  60;

$$

IAZ062-063-075>077-085>089-095>099-221900-
   SOUTHEAST IOWA

CITY           SKY/WX    TMP DP  RH WIND       PRES   REMARKS
BURLINGTON     SUNNY     59  39  47 NE13G24   30.17F
6HR MIN TEMP:  45; 6HR MAX TEMP:  59;

FAIRFIELD *    SUNNY     61  30  31 NE15G22   30.19F
FORT MADISON * CLOUDY    61  37  41 NE13G23   30.18F
KEOKUK *       SUNNY     59  37  44 NE14G22   30.16F
OSKALOOSA *      N/A     61  30  31 NE17G25   30.21F
CENTERVILLE *    N/A     61  28  29 NE17G24   30.20S
OTTUMWA        SUNNY     62  26  25 NE14G23   30.20F
6HR MIN TEMP:  43; 6HR MAX TEMP:  62;

WASHINGTON *   SUNNY     63  32  31 NE15G25   30.21F
$$

ABBREVIATIONS USED IN REMARKS
   TC - TEMPERATURES IN CELSIUS
  WCI - WIND CHILL INDEX
   HX - HEAT INDEX
  VSB - VISIBILITY
$$




USA.gov is the U.S. government's official web portal to all federal, state and local government web resources and services.